Regional Weather Roundup
Issued by NWS

Home | Current Version | Previous Version | Graphics & Text | Print | Product List | Glossary On
Versions: 1 2 3 4 5 6 7 8 9 10 11 12 13 14 15 16 17 18 19 20 21 22 23 24 25 26 27 28 29 30 31 32 33 34 35 36 37 38 39 40 41 42 43 44 45 46 47 48 49 50
000
ASUS43 KDTX 230110
RWRMI
MICHIGAN HOURLY REGIONAL WEATHER ROUNDUP
NATIONAL WEATHER SERVICE DETROIT/PONTIAC MI
900 PM EDT WED OCT 22 2014

NOTE: "FAIR" INDICATES FEW OR NO CLOUDS BELOW 12,000 FEET WITH NO
SIGNIFICANT WEATHER AND/OR OBSTRUCTION TO VISIBILITY.

MIZ047>049-052>055-059>063-066>070-074>076-081>083-230200-
SOUTHEAST LOWER MICHIGAN

CITY           SKY/WX    TMP DP  RH WIND       PRES   REMARKS
ADRIAN         CLEAR     43  38  82 N5        30.29S
ALMA           CLOUDY    45  38  76 CALM      30.31F
ANN ARBOR      CLEAR     44  37  76 N6        30.28S
BAD AXE        CLEAR     33  32  97 CALM      30.32S
CARO           CLEAR     36  35  96 CALM      30.31S
DETROIT CITY   CLEAR     48  39  71 NE8       30.30R
DETROIT        MOCLDY    47  40  76 NW7       30.29S
FLINT          CLEAR     43  37  79 N5        30.31F
GROSSE ILE     CLEAR     48  41  76 N6        30.27S
HILLSDALE      CLEAR     37  37  99 CALM      30.28S
HOWELL         CLEAR     41  37  85 CALM      30.29S

CITY           SKY/WX    TMP DP  RH WIND       PRES   REMARKS
JACKSON        CLEAR     39  35  86 CALM      30.29S
LAMBERTVILLE   CLOUDY    48  43  81 CALM      30.28S
LANSING        CLOUDY    43  37  79 CALM      30.32S
LAPEER         MOCLDY    42  38  84 NE6       30.31S
MASON          MOCLDY    40  37  88 CALM      30.30S
MONROE         CLEAR     46  39  76 CALM      30.27S
MT. CLEMENS    CLEAR     42  39  90 N9        30.27R
PONTIAC        PTCLDY    43  37  79 N5        30.28S
PORT HOPE        N/A     46  39  76 NE7       30.30S
PORT HURON     CLEAR     41  39  93 NW3       30.29S
TRI CITIES     CLOUDY    46  37  71 E6        30.32F
TROY           CLEAR     47  38  71 NW3       30.30S
SAGINAW HB     CLOUDY    45  37  76 CALM      30.31S
$$
MIZ043>046-050>051-056>058-064>065-071>073-077>080-230200-
SOUTHWEST LOWER MICHIGAN

CITY           SKY/WX    TMP DP  RH WIND       PRES   REMARKS
BATTLE CREEK   CLOUDY    45  37  73 E5        30.30S
BENTON HARBOR  CLEAR     38  36  92 CALM      30.29S
BIG RAPIDS     CLEAR     37  36  98 SW5       30.29S WCI  33
COLDWATER      CLEAR     41  39  94 CALM      30.29S
FREMONT        FAIR      41  33  72 CALM      30.29S
HOLLAND        CLEAR     43  36  76 CALM      30.30S
GRAND RAPIDS   CLEAR     40  36  86 E3        30.31R
IONIA          MOCLDY    44  37  78 E5        30.29F
KALAMAZOO      CLEAR     41  36  82 E3        30.30S
LUDINGTON      CLEAR     34  33  96 CALM      30.29F
MARSHALL       CLOUDY    42  38  85 CALM      30.29F
MOUNT PLEASANT CLEAR     37  35  93 CALM      30.30F
MUSKEGON       CLEAR     39  34  82 CALM      30.30S
SOUTH HAVEN    CLEAR     39  37  94 CALM      30.29S
$$
MIZ016>042-230200-
NORTHERN LOWER MICHIGAN

CITY           SKY/WX    TMP DP  RH WIND       PRES   REMARKS
ALPENA         CLEAR     33  30  88 CALM      30.31S
BEAVER ISLAND  CLEAR     30  29  98 CALM      30.29F FOG
BELLAIRE       CLEAR     34  33  94 CALM      30.30S
CADILLAC       CLEAR     31  30  95 CALM      30.27F
CHARLEVOIX     CLEAR     34  34  97 CALM      30.32F
FRANKFORT      CLEAR     34  32  92 CALM      30.29S
GAYLORD        CLEAR     36  30  79 CALM      30.28S
GRAYLING       CLEAR     32  31  98 CALM      30.30S
HARBOR SPRINGS CLEAR     39  35  85 NE3       30.29F
HOUGHTON LAKE  CLEAR     32  30  92 E3        30.29F
MANISTEE       CLEAR     34  28  80 CALM      30.29F
OSCODA         CLEAR     33  32  94 CALM      30.31S
PELLSTON       CLEAR     32  30  92 SE5       30.30F WCI  27
TRAVERSE CITY  PTCLDY    35  32  88 CALM      30.28F
$$
MIZ007>008-015-230200-
EASTERN UPPER MICHIGAN

CITY           SKY/WX    TMP DP  RH WIND       PRES   REMARKS
KINROSS        CLEAR     37  34  87 SE3       30.29F
MACKINAC ISLAN CLEAR     40  34  77 SE8       30.30S WCI  35
NEWBERRY       CLEAR     34  31  90 S5        30.27F WCI  30
S. S. MARIE    CLEAR     39  29  67 S5        30.29R
MUNISING         N/A     39  33  79 S6        30.24F WCI  35
$$
MIZ004>006-011>014-085-230200-
CENTRAL UPPER MICHIGAN

CITY           SKY/WX    TMP DP  RH WIND       PRES   REMARKS
MANISTIQUE     CLEAR     40  35  85 S8        30.28S WCI  34
ESCANABA       CLEAR     41  34  75 S6        30.26F
MENOMINEE      CLEAR     41  34  75 S5        30.26S
SAWYER-GWINN   CLEAR     37  34  87 S12       30.23S WCI  30
$$
MIZ001>003-009>011-084-230200-
WESTERN UPPER MICHIGAN

CITY           SKY/WX    TMP DP  RH WIND       PRES   REMARKS
IRON MOUNTAIN  CLEAR     39  33  79 SE6       30.22S WCI  35
HOUGHTON       CLEAR     44  32  62 SE8       30.16S
COPPER HARBOR    N/A     47  37  68 CALM      30.17F
IRONWOOD       MOCLDY    52  28  40 SE8       30.08F
$$

ABBREVIATIONS USED IN REMARKS
   TC - TEMPERATURE IN CELSIUS
  WCI - WIND CHILL INDEX
   HX - HEAT INDEX
  VSB - VISIBILITY




USA.gov is the U.S. government's official web portal to all federal, state and local government web resources and services.